Skagway, AK

5:21 AM AKST on December 11, 2017 (GMT -0900)
Skagway

Weather History for PAGY - March, 2013

Change the Weather History Date:

Tuesday, March 19, 2013

  Actual Average Record
Temperature  
Mean Temperature 26 °F -  
Max Temperature 30 °F 37 °F 53 °F (1998)
Min Temperature 21 °F 25 °F 7 °F (1969)
Degree Days  
Heating Degree Days 40    
Moisture  
Dew Point 6 °F    
Average Humidity 45    
Maximum Humidity 72    
Minimum Humidity 32    
Precipitation  
Precipitation 0.00 in - - ()
Sea Level Pressure  
Sea Level Pressure 29.80 in    
Wind  
Wind Speed 8 mph (NNE)    
Max Wind Speed 23 mph    
Max Gust Speed 29 mph    
Visibility 10 miles    
Events      
Averages and records for this station are not official NWS values.
T = Trace of Precipitation, MM = Missing Value Source: NWS Daily Summary

Daily Weather History Graph

Daily Weather History Graph

Search for Another Location

Airport or City:

Trip Planner

Search our weather history database for the weather conditions in past years. The results will help you decide how hot, cold, wet, or windy it might be!

Date:

Astronomy

Mar. 19, 2013 Rise Set
Actual Time 7:04 AM AKDT 7:14 PM AKDT
Civil Twilight 6:23 AM AKDT 7:55 PM AKDT
Nautical Twilight 5:34 AM AKDT 8:44 PM AKDT
Astronomical Twilight 4:42 AM AKDT 9:37 PM AKDT
Moon 10:39 AM AKDT (3/19) 3:29 AM AKDT (3/19)
Length of Visible Light 13h 31m
Length of Day
12h 09m
Waxing Crescent, 51% of the Moon is Illuminated
Mar 19
Waxing Crescent
Mar 27
Full
Apr 2
Last Quarter
Apr 10
New
Apr 18
First Quarter

Hourly Weather History & Observations

Time (AKDT) Temp. Windchill Dew Point Humidity Pressure Visibility Wind Dir Wind Speed Gust Speed Precip Events Conditions
12:53 AM 24.1 °F - 16.0 °F 71% 29.87 in 10.0 mi Calm Calm - 0.00 in   Overcast
1:53 AM 23.0 °F - 14.0 °F 68% 29.85 in 10.0 mi Calm Calm - N/A   Overcast
2:53 AM 21.0 °F - 12.9 °F 71% 29.85 in 10.0 mi Calm Calm - N/A   Scattered Clouds
3:53 AM 21.0 °F 16.2 °F 12.9 °F 71% 29.84 in 10.0 mi NNE 3.5 mph - N/A   Overcast
4:53 AM 21.9 °F - 14.0 °F 72% 29.82 in 10.0 mi Calm Calm - N/A   Overcast
5:53 AM 25.0 °F 14.8 °F 10.0 °F 53% 29.81 in 10.0 mi NNE 10.4 mph 24.2 mph N/A   Overcast
6:53 AM 25.0 °F 14.8 °F 9.0 °F 51% 29.81 in 10.0 mi North 10.4 mph 20.7 mph N/A   Overcast
7:53 AM 26.1 °F 14.5 °F 7.0 °F 44% 29.81 in 10.0 mi NE 13.8 mph 28.8 mph N/A   Overcast
8:53 AM 26.1 °F 14.0 °F 8.1 °F 47% 29.81 in 10.0 mi NNE 15.0 mph 23.0 mph N/A   Overcast
9:53 AM 27.0 °F 13.9 °F 6.1 °F 41% 29.80 in 10.0 mi NE 18.4 mph 24.2 mph N/A   Overcast
10:53 AM 28.0 °F 15.3 °F 6.1 °F 39% 29.80 in 10.0 mi NE 18.4 mph 27.6 mph N/A   Overcast
11:53 AM 28.9 °F 15.1 °F 3.9 °F 35% 29.79 in 10.0 mi NE 23.0 mph - N/A   Overcast
12:53 PM 30.0 °F 17.9 °F 3.9 °F 33% 29.79 in 10.0 mi NE 18.4 mph 24.2 mph N/A   Scattered Clouds
1:53 PM 30.0 °F 17.9 °F 5.0 °F 35% 29.79 in 10.0 mi NNE 18.4 mph - N/A   Scattered Clouds
2:53 PM 30.9 °F 19.4 °F 3.9 °F 32% 29.78 in 10.0 mi NE 17.3 mph 23.0 mph N/A   Overcast
3:53 PM 30.9 °F 18.4 °F 6.1 °F 35% 29.77 in 10.0 mi NE 20.7 mph 25.3 mph N/A   Overcast
4:53 PM 30.0 °F 19.5 °F 3.9 °F 33% 29.77 in 10.0 mi NNE 13.8 mph 23.0 mph N/A   Mostly Cloudy
5:53 PM 28.9 °F 22.8 °F 1.9 °F 32% 29.77 in 10.0 mi Variable 5.8 mph - N/A   Partly Cloudy
6:53 PM 27.0 °F 18.0 °F 1.9 °F 34% 29.77 in 10.0 mi NNE 9.2 mph - N/A   Clear
7:53 PM 26.1 °F 15.0 °F 1.0 °F 34% 29.78 in 10.0 mi NNE 12.7 mph - N/A   Clear
8:53 PM 25.0 °F 13.1 °F 1.9 °F 37% 29.78 in 10.0 mi NNE 13.8 mph 21.9 mph N/A   Clear
9:53 PM 24.1 °F 12.0 °F 3.0 °F 40% 29.78 in 10.0 mi NNE 13.8 mph 21.9 mph N/A   Clear
10:53 PM 23.0 °F 9.6 °F -0.0 °F 37% 29.79 in 10.0 mi NNE 16.1 mph 20.7 mph N/A   Clear
11:53 PM 23.0 °F 11.1 °F -2.0 °F 34% 29.80 in 10.0 mi NNE 12.7 mph - N/A   Clear